Location: Andrest
(43.3200°N, 0.0641°E)
Time: 15:01:00
(UTC+00:00)

NOSS 3-2 (C) - Visible Passes

Search period start: 20 April 2021 00:00
Search period end: 30 April 2021 00:00
Orbit: 783 x 1429 km, 63.4° (Epoch: 11 April)

Date Brightness Start Highest point End Pass type
(mag) Time Alt. Az. Time Alt. Az. Time Alt. Az.
20 Apr 6.2 20:15:37 10° WNW 20:21:05 20° WSW 20:26:54 10° SSW visible
21 Apr 5.8 19:29:56 10° NW 19:36:38 31° WSW 19:43:56 10° S visible
23 Apr 6.5 19:53:16 10° WNW 19:57:26 15° WSW 20:01:47 10° SW visible
26 Apr 7.0 19:32:30 10° W 19:33:44 10° WSW 19:34:59 10° WSW visible
